SCP
1 1 1 0 0 0 0 0 0 0 0 0 0 0 0 0 0 0 0 1 1 2 4 5 5 4 4 3 3 2 2 3 3 2 2 1 1 1 1 1 1 1 1 1 1 1 1 1 1
1 1 1 0 0 0 0 0 0 0 0 0 0 0 0 0 0 0 0 1 2 2 3 4 5 4 4 3 3 2 2 3 3 2 2 1 1 1 1 1 1 1 1 1 1 1 1 1 1
1 1 0 0 0 0 0 0 0 0 0 0 0 0 0 0 0 0 1 1 2 3 3 4 4 4 4 3 3 2 2 3 3 3 2 2 1 1 1 1 1 1 1 1 1 1 1 1 1
1 0 0 0 0 0 0 0 0 0 0 0 0 0 0 0 1 1 1 2 3 3 2 3 4 4 4 3 3 3 3 3 3 3 2 2 2 1 1 1 1 1 1 1 1 1 1 1 1
0 0 0 0 0 0 0 0 0 0 0 0 0 0 0 1 1 1 2 3 4 3 2 2 3 3 3 3 3 3 3 3 3 3 3 2 2 2 2 1 1 1 1 1 1 1 1 1 1
0 0 0 0 0 0 0 0 0 0 0 0 0 0 1 1 1 1 2 4 4 3 3 2 3 3 3 3 3 3 3 3 3 3 2 2 2 2 2 2 2 1 1 1 1 1 1 1 1
1 0 0 0 0 0 0 0 0 0 0 0 0 0 1 1 1 2 3 4 4 3 2 2 3 3 3 3 2 2 2 2 2 2 2 2 2 2 2 2 2 2 1 1 1 1 1 1 1
1 1 0 0 0 0 0 0 0 0 0 0 0 0 1 1 1 2 3 4 3 3 2 2 3 3 3 3 2 2 2 2 2 2 2 2 2 2 2 2 2 2 1 1 1 1 1 1 1
1 1 0 0 0 0 0 0 0 0 0 0 0 0 1 1 2 2 3 3 3 2 2 2 3 3 3 3 2 2 2 2 2 2 2 2 2 2 2 1 1 1 1 1 1 1 1 1 1
1 0 0 0 0 0 0 0 0 0 0 0 0 1 1 1 2 2 2 3 2 2 2 2 2 3 3 3 3 2 2 2 2 2 2 2 2 2 2 1 1 1 1 1 1 1 1 1 1
0 0 0 0 0 0 0 0 0 0 0 0 0 1 1 1 2 2 2 2 2 2 2 2 2 3 3 3 3 3 3 3 2 2 2 2 2 2 2 1 1 1 1 1 1 1 1 1 1
0 0 0 0 0 0 0 0 0 0 0 0 0 1 1 1 2 2 2 2 2 2 2 2 2 3 3 3 3 3 3 3 2 2 2 2 2 2 2 2 1 1 1 1 1 1 1 1 1
0 0 0 0 0 0 0 0 0 0 0 0 0 1 1 1 1 2 2 2 2 2 2 2 2 3 3 3 3 3 3 3 2 2 2 2 2 2 2 2 1 1 1 1 1 1 1 1 1
0 0 0 0 0 0 0 0 0 0 0 0 0 1 1 1 1 1 2 2 2 2 2 2 2 3 3 3 3 3 3 3 2 2 2 2 2 2 1 1 1 1 1 1 1 1 1 1 1
0 0 0 0 0 0 0 0 0 0 0 0 0 1 1 1 1 1 1 1 2 2 2 2 3 3 3 3 3 3 3 3 2 2 2 2 1 1 1 1 1 1 0 1 1 1 1 1 1
0 0 0 0 0 0 0 0 0 0 0 0 0 0 1 1 1 1 1 1 1 2 3 3 3 3 3 3 3 3 3 3 2 2 2 2 1 1 1 1 1 1 0 1 1 1 1 1 1
0 0 0 0 0 0 0 0 0 0 0 0 0 0 0 0 0 1 1 1 1 2 3 3 3 3 3 3 3 3 3 3 3 2 2 2 2 1 1 1 1 1 1 1 1 1 1 1 1
0 0 0 0 0 0 0 0 0 0 0 0 0 0 0 0 0 0 1 1 1 2 3 4 3 3 3 3 3 3 3 3 3 3 2 2 2 1 1 1 1 1 1 1 0 0 1 1 1
0 0 0 0 0 0 0 0 0 0 0 0 0 0 0 0 0 0 1 1 2 2 3 4 3 3 3 4 4 3 3 3 3 3 3 2 2 1 1 1 1 1 1 1 0 0 0 1 1
0 0 0 0 0 0 0 0 0 0 0 0 0 0 0 0 0 0 1 1 1 2 3 4 3 3 3 3 4 3 3 3 3 3 3 2 2 1 1 1 1 1 1 1 0 0 0 0 1
0 0 0 0 0 0 0 0 0 0 0 0 0 0 0 0 0 0 0 1 1 2 3 4 4 4 3 3 2 2 2 2 2 2 3 2 2 1 1 1 1 1 1 1 0 0 0 0 0
0 0 0 0 0 0 0 0 0 0 0 0 0 0 0 0 0 0 0 0 1 2 3 4 4 4 3 3 2 1 1 1 1 1 2 2 2 2 1 1 1 1 1 1 1 0 0 0 0
0 0 0 0 0 0 0 0 0 0 0 0 0 0 0 0 0 0 0 0 1 1 3 4 4 4 3 2 1 0 0 0 0 1 1 1 1 1 1 1 1 1 1 1 1 0 0 0 0
0 0 0 0 0 0 0 0 0 0 0 0 0 0 0 0 0 0 0 0 1 1 2 3 4 4 3 2 1 0 0 0 0 0 1 1 1 1 1 1 1 1 1 1 1 1 1 0 0
0 0 0 0 0 0 0 0 0 0 0 0 0 0 0 0 0 0 0 0 1 2 2 3 3 3 2 1 1 0 0 0 0 0 0 1 1 1 1 1 1 1 1 1 1 1 1 1 1
0 0 0 0 0 0 0 0 0 0 0 0 0 0 0 0 0 0 0 1 1 2 2 3 3 2 1 1 0 0 0 0 0 0 0 0 1 1 1 0 0 0 0 1 1 1 1 1 1
0 0 0 0 0 0 0 0 0 0 0 0 0 0 0 0 0 0 0 1 1 2 2 2 2 1 1 1 0 0 0 0 0 0 0 0 0 0 1 0 0 0 0 0 0 1 1 1 1
0 0 0 0 0 0 0 0 0 0 0 0 0 0 0 0 0 0 1 1 1 1 1 1 1 0 1 1 0 0 0 0 0 0 0 0 0 0 1 0 0 0 0 0 0 0 0 1 1
0 0 0 0 0 0 0 0 0 0 0 0 0 0 0 0 0 0 0 0 0 0 0 0 0 0 0 1 0 0 0 0 0 0 0 0 0 0 0 0 0 1 1 0 0 0 0 0 0
0 0 0 0 0 0 0 0 0 0 0 0 0 0 0 0 0 0 0 0 0 0 0 0 0 0 0 1 0 0 0 0 0 0 0 0 0 0 0 0 0 0 0 0 0 0 0 0 0
Wind_Speed
4 3 3 4 6 3 3 4 3 2 2 2 1 3 5 5 4 3 1 3 4 6 6 8 10 10 11 11 11 11 10 10 9 9 10 10 10 9 10 10 9 9 9 10 10 10 10 11 11
1 2 4 5 4 2 5 4 4 4 3 0 1 1 2 1 1 0 0 2 4 6 6 6 10 11 11 11 11 11 10 10 9 9 9 9 9 9 9 9 9 9 9 9 9 10 10 10 10
1 3 4 4 4 6 5 3 5 3 1 0 1 1 1 1 1 1 2 3 4 6 5 7 11 11 11 11 11 10 10 9 9 9 8 8 8 8 8 8 8 8 8 8 8 9 9 10 10
3 4 4 2 6 6 4 2 2 0 1 1 1 1 1 1 1 2 2 5 5 5 4 7 11 11 11 11 10 10 10 9 9 9 9 8 8 8 8 8 8 7 8 8 8 9 9 9 9
4 4 3 2 6 4 4 3 1 1 0 0 2 0 3 3 2 1 4 6 6 5 4 5 9 10 10 11 10 10 10 9 9 8 8 8 8 8 8 7 7 8 8 8 8 8 8 8 9
4 4 3 6 7 4 3 3 1 1 1 1 2 1 3 2 2 1 3 4 5 5 4 4 8 8 9 10 10 10 9 9 9 8 8 8 7 7 7 7 7 7 7 7 7 7 8 8 8
4 3 4 5 4 4 3 2 3 2 2 3 3 2 3 2 1 2 3 3 4 4 4 3 4 6 7 8 8 8 8 8 8 8 7 7 7 7 7 6 7 7 6 6 6 7 7 8 8
4 4 2 4 4 5 2 0 1 3 4 2 3 4 3 3 0 3 4 3 3 3 3 3 3 4 4 5 7 7 7 7 7 7 6 6 6 6 6 5 6 6 6 6 6 6 7 7 8
3 3 5 6 5 4 1 0 2 1 1 1 1 3 2 2 3 4 3 2 2 2 2 3 3 4 4 4 5 6 6 6 6 5 6 5 3 3 3 4 5 5 6 5 5 6 6 6 6
3 4 7 4 3 3 1 1 1 0 1 2 2 2 1 3 4 5 4 4 4 4 3 3 4 4 4 4 3 3 3 4 3 3 3 3 3 2 3 4 4 4 4 4 5 6 6 5 3
3 5 4 3 2 1 1 1 1 2 4 5 4 3 2 3 3 5 5 5 5 4 3 3 4 4 4 3 3 2 2 2 3 4 4 3 3 2 2 2 2 3 3 2 3 3 2 2 2
2 3 3 3 1 1 2 2 2 4 7 4 4 3 3 5 6 6 6 5 4 3 4 3 3 4 4 4 3 3 3 2 2 3 4 3 2 2 2 1 1 2 1 2 2 2 2 2 2
3 3 3 3 2 2 2 3 4 6 6 2 1 1 3 5 5 4 4 4 4 4 4 4 4 4 5 4 4 4 4 4 3 3 3 4 3 2 2 1 1 1 1 1 1 2 2 2 2
3 3 4 4 3 2 3 5 3 7 2 1 1 3 4 5 5 3 3 4 4 5 4 4 4 4 4 4 4 4 3 4 3 3 3 4 3 3 2 2 2 1 1 1 1 1 2 1 1
1 2 4 3 2 2 1 5 6 6 1 2 3 4 4 5 4 5 5 5 5 5 4 4 4 4 5 5 5 4 3 4 4 3 3 4 3 3 3 2 2 1 1 2 1 1 2 1 1
1 1 3 4 1 1 2 8 6 2 2 4 5 4 5 5 5 5 5 4 4 4 4 4 3 4 5 4 4 3 3 4 3 3 3 4 4 4 3 3 2 2 2 2 2 1 1 1 1
1 2 4 5 2 0 2 7 6 2 3 5 5 5 5 5 6 5 5 4 4 4 4 4 3 4 5 4 3 3 3 3 3 3 3 3 4 4 3 3 2 2 2 1 2 1 1 1 1
4 3 3 4 3 1 4 8 8 4 4 6 6 6 6 6 7 5 4 4 3 3 3 3 3 3 3 3 3 2 2 2 2 3 3 4 4 4 3 3 3 2 2 2 2 2 1 1 1
2 2 4 4 3 2 5 9 10 6 3 5 6 6 6 6 5 4 3 2 2 2 2 3 3 3 3 3 4 4 3 3 2 3 4 4 4 4 4 3 3 3 2 2 3 2 2 1 1
2 3 5 5 2 3 5 10 8 5 5 5 6 6 5 4 4 3 2 1 2 2 3 3 4 4 4 4 3 3 3 2 2 2 3 4 4 4 4 4 3 3 3 3 3 3 2 1 1
4 4 4 4 4 2 4 8 4 3 3 4 4 4 4 4 5 4 2 2 1 2 3 3 4 4 4 4 3 3 3 2 1 2 2 3 4 4 4 4 4 3 3 3 3 3 3 2 1
6 3 4 3 2 3 1 6 6 3 4 4 5 4 4 4 4 3 2 2 2 2 2 2 3 3 3 4 5 5 4 3 3 3 2 2 3 4 4 4 4 4 3 3 3 3 2 3 2
3 1 2 2 2 2 1 3 9 2 4 6 5 4 4 4 4 3 2 2 2 1 1 2 2 3 3 4 5 5 4 2 2 3 3 2 2 2 3 3 3 4 3 3 3 3 2 2 3
1 3 2 2 2 3 4 4 8 3 5 5 4 3 3 3 3 2 2 2 2 2 1 1 2 2 3 4 4 5 5 4 4 4 3 2 2 1 1 2 3 3 3 3 4 3 3 2 3
2 3 3 3 2 6 1 3 9 6 4 4 4 4 2 1 1 2 2 3 2 2 1 0 2 2 3 3 3 4 4 5 5 4 4 3 2 1 2 2 2 2 3 3 3 3 3 3 3
3 5 5 4 4 4 1 6 8 4 3 3 2 2 1 1 1 1 2 2 1 1 1 0 2 2 2 3 3 2 3 3 3 3 4 4 3 2 3 3 2 2 2 2 3 2 2 2 3
3 3 3 3 1 2 5 6 8 3 3 3 3 2 1 1 1 1 2 2 2 2 2 0 1 2 2 2 2 2 3 3 3 2 3 3 2 2 3 3 3 2 2 2 3 2 2 2 2
3 4 3 3 3 4 5 5 5 5 4 3 3 3 3 2 1 2 2 2 2 2 2 1 1 1 1 2 2 2 2 2 2 2 2 3 3 3 3 3 3 2 2 2 2 2 2 3 2
2 2 3 3 3 3 4 7 5 5 3 2 3 3 2 2 2 2 2 2 2 2 2 2 2 2 1 2 2 2 2 2 2 2 2 2 3 3 3 3 3 3 3 3 3 2 3 3 3
4 5 5 4 4 3 3 9 4 3 2 1 2 3 2 2 2 2 2 2 2 2 2 2 1 1 1 1 2 2 2 2 2 2 2 2 2 3 3 3 3 3 3 3 4 4 3 3 4
Wind_Direction
356 35 63 58 58 56 230 237 217 230 230 240 196 150 157 170 170 208 294 139 131 146 159 162 154 148 145 140 134 130 127 124 122 121 121 119 116 115 117 112 108 104 99 94 88 89 89 88 88
12 51 57 66 106 201 249 232 218 222 209 49 34 88 121 230 271 69 176 184 146 149 154 156 153 149 146 141 138 135 131 126 124 122 121 123 120 117 117 115 110 105 100 96 91 91 91 90 90
53 57 87 93 160 198 221 219 220 253 268 7 22 36 150 238 271 217 234 173 144 146 148 157 151 149 146 142 140 137 134 129 125 124 123 122 123 119 116 118 114 109 103 100 98 94 92 92 93
73 51 61 111 220 223 218 227 202 267 5 37 95 352 308 310 256 232 162 144 138 142 144 158 153 151 149 145 143 140 137 132 129 127 124 121 119 116 115 115 115 112 107 104 102 98 95 97 95
64 84 92 232 237 241 238 248 205 129 348 18 111 283 297 323 338 103 133 142 145 141 139 152 152 151 149 146 144 142 139 135 133 131 129 125 120 118 116 115 116 113 112 109 107 105 104 104 99
68 85 144 226 240 250 250 239 188 184 226 186 139 192 269 324 30 100 131 142 144 142 138 144 150 147 147 147 146 143 141 138 135 133 132 130 125 121 119 121 121 119 118 115 112 110 106 104 99
118 127 196 216 239 253 248 214 180 204 233 229 176 167 278 313 307 107 113 125 130 136 134 136 147 148 147 144 142 143 142 139 136 133 129 124 120 120 120 119 127 126 120 119 116 113 109 106 102
129 122 200 219 223 246 252 322 221 192 230 232 159 172 234 261 115 93 96 106 128 135 137 138 141 139 144 148 142 138 136 136 133 128 123 117 114 115 113 112 125 130 125 120 117 116 112 108 105
97 106 220 216 205 232 219 241 303 288 177 314 217 206 235 142 117 108 106 109 145 154 154 148 145 143 140 142 140 136 134 129 125 123 117 106 93 93 97 103 110 122 126 121 119 117 110 97 95
113 192 229 222 211 217 232 208 236 5 300 284 305 312 35 127 147 156 171 182 186 192 191 170 161 156 148 143 134 127 125 125 117 110 109 101 93 91 87 88 95 97 102 109 108 106 97 84 74
163 207 240 259 254 241 260 266 237 172 240 231 233 236 191 165 180 191 194 194 199 199 196 189 175 165 155 150 138 131 117 121 122 118 117 108 96 87 78 76 70 66 70 73 83 81 79 85 87
190 252 256 270 283 270 248 255 256 228 238 245 225 201 195 198 202 207 206 204 200 197 204 196 182 171 166 158 152 149 141 135 141 140 135 127 118 108 102 92 81 72 75 81 81 87 85 86 89
230 266 275 283 300 277 269 260 252 255 265 272 229 202 206 217 217 218 213 204 196 203 209 202 189 179 175 163 162 157 160 154 157 153 149 143 141 142 132 121 104 93 89 98 107 104 100 95 85
233 264 290 290 288 287 252 270 252 261 265 246 212 232 232 230 224 217 218 214 209 209 210 200 192 186 176 173 169 167 166 158 151 159 157 152 150 149 145 139 129 119 116 119 128 136 122 113 106
276 305 311 286 267 260 245 280 247 263 247 252 251 251 263 260 242 227 221 216 214 213 211 206 192 183 177 176 174 171 170 161 158 160 157 156 152 153 153 151 151 148 127 118 109 101 102 114 107
39 34 286 287 274 257 170 261 273 273 225 250 258 260 266 270 256 244 234 222 218 207 204 209 195 185 185 181 174 172 172 168 167 157 157 158 156 156 152 156 165 156 139 133 130 118 104 109 118
15 247 253 286 277 236 198 259 281 283 236 250 257 258 260 272 271 260 235 221 217 208 200 200 193 188 186 177 168 160 163 174 170 160 158 161 161 161 157 164 165 152 141 142 142 119 129 134 116
240 243 255 259 291 293 257 266 282 282 254 259 266 265 261 262 262 259 239 222 215 208 197 192 189 189 175 163 150 143 147 167 165 168 167 162 164 165 159 157 157 151 143 144 133 128 101 121 129
200 210 257 264 292 299 268 277 283 290 286 277 276 271 271 269 274 269 247 230 205 198 190 190 180 185 170 166 164 163 175 176 178 178 171 166 163 166 165 162 159 159 159 162 153 135 123 110 119
231 257 273 292 309 281 284 283 282 269 258 251 256 265 268 286 308 307 297 249 209 205 199 195 188 185 185 181 174 161 151 165 175 170 172 172 165 167 173 170 169 167 157 153 160 146 146 132 117
239 234 258 276 322 318 315 301 282 281 272 280 269 262 269 265 274 287 295 279 255 232 209 200 200 186 182 165 146 124 104 92 111 164 179 183 173 170 172 176 168 168 166 174 179 170 162 165 176
251 245 247 265 305 298 16 297 291 274 295 282 273 274 273 277 273 276 288 298 278 249 221 194 190 180 171 159 157 162 165 170 184 181 173 168 173 171 171 172 170 170 172 175 186 182 170 159 174
233 286 243 238 214 288 256 248 287 315 287 278 275 271 276 277 273 275 278 266 282 280 210 190 168 163 161 163 165 168 165 161 146 142 138 147 150 155 164 169 168 170 173 178 177 174 170 175 175
153 38 40 50 86 266 224 203 281 253 248 278 290 285 283 290 299 299 316 354 358 4 31 148 154 159 159 162 164 168 163 154 148 150 152 158 151 143 147 162 169 172 170 179 180 175 171 180 179
83 85 29 0 345 254 216 212 256 258 256 258 275 287 285 286 320 335 355 6 2 2 3 138 154 162 163 163 168 172 166 163 165 166 167 164 163 176 184 162 168 177 176 175 169 170 174 177 182
200 155 165 203 232 276 276 236 257 271 278 282 290 289 319 358 354 352 350 355 350 352 351 15 168 160 162 167 170 166 162 161 167 172 172 173 178 184 176 169 173 177 166 168 169 172 180 174 185
165 198 170 143 191 271 264 275 295 290 318 340 351 -0 347 337 347 352 3 7 5 1 344 299 148 144 156 161 154 155 159 158 166 175 168 166 171 171 167 165 168 171 163 167 165 171 176 172 187
169 149 111 141 187 255 278 265 262 289 301 334 346 333 322 327 347 359 2 358 357 352 360 24 91 136 144 146 153 155 157 155 153 159 164 164 168 164 161 166 169 170 166 172 172 175 176 175 196
150 151 151 163 184 190 264 268 241 240 250 271 295 308 313 317 317 343 345 347 355 10 22 32 62 74 105 135 143 141 147 144 149 173 180 172 167 163 168 179 179 179 180 179 180 191 184 190 205
194 186 162 175 226 207 232 268 277 237 244 240 292 309 321 320 321 331 338 355 15 19 17 22 53 70 72 140 136 149 152 148 162 179 181 179 178 178 181 184 189 193 190 186 190 200 198 202 212